[[{"header":{"parameterUnit":"m.s-1","parameterCategory":1,"la1":30.2991,"la2":30.254,"lo1":-89.0895,"lo2":-89.0444,"dy":0.0017,"dx":0.0017,"nx":28,"ny":28,"refTime":"2024-04-03T21:00:00:Z","depth":0,"parameterNumber":2,"parameterNumberName":"U-component_of_WINDS"},"data":[0,0,0,0,0,0,0,0,0,0,0,0,0,0,0,0,0,0,0,0,0,0,0,0,0,0,0,0,0,0,0,0,0,0,0,0,0,0,0,0,0,0,0,0,0,0,0,0,0,0,0,0,0,0,0,0,0,0,0.6997,0.6997,0,0.7006,0.7007,0.7007,0.6924,0.6922,0.692,0.6918,0.693,0.6933,0.6935,0,0,0,0,0,0,0,0,0,0,0,0,0,0.6913,0.6915,0.6997,0.6997,0.6998,0.7006,0.7007,0.7007,0.6925,0.6922,0.6919,0.6917,0.693,0.6932,0.6935,0,0,0,0,0,0,0,0,0,0,0,0,0,0.6939,0.6915,0.6997,0.6958,0.6954,0.7006,0.7007,0.7007,0.6925,0.6922,0.6918,0.6915,0.6929,0.6932,0.6936,0.7028,0,0,0.6947,0.6949,0,0,0,0,0,0,0,0,0.6937,0.6942,0.6963,0.696,0.6957,0.6961,0.6981,0.7014,0.6926,0.6936,0.6918,0.6914,0.6943,0.6946,0.6955,0.7028,0.7029,0.6948,0.695,0.6951,0.6952,0,0,0,0,0,0,0,0.6935,0.6941,0.7001,0.6964,0.696,0.6941,0.694,0.6987,0.6959,0.6935,0.6929,0.6931,0.6941,0.6952,0.6955,0.7029,0.6947,0.6951,0.6953,0.6954,0.718,0.7183,0,0,0,0,0,0,0.6938,0.694,0.7001,0.7001,0.6938,0.6945,0.6945,0.6963,0.6958,0.6954,0.6934,0.6927,0.6947,0.6951,0.6955,0.7064,0.6951,0.6955,0.6957,0.7176,0.718,0.7184,0,0,0,0,0,0,0.6937,0.6945,0.7,0.6969,0.6975,0.695,0.6971,0.6965,0.6976,0.6958,0.6953,0.695,0.6944,0.695,0.701,0.7063,0.6956,0.696,0.7171,0.7177,0.7182,0.7281,0,0,0,0,0,0,0.6935,0.6945,0.6978,0.697,0.6977,0.7055,0.6974,0.6968,0.6982,0.6973,0.6971,0.6968,0.6942,0.7005,0.7014,0.7066,0.6963,0.7167,0.7174,0.7181,0.7273,0.729,0.7304,0,0,0,0,0,0.6932,0.7006,0.6981,0.6988,0.7018,0.7058,0.7062,0.703,0.6986,0.7021,0.7009,0.6968,0.7055,0.7012,0.7021,0.7075,0.7163,0.7172,0.718,0.7267,0.7286,0.7303,0,0,0,0,0,0,0.7022,0.7004,0.6976,0.7049,0.7056,0.7044,0.7087,0.7052,0.7072,0.7063,0.7023,0.7024,0.7092,0.7089,0.7041,0.7165,0.7102,0.7113,0.7164,0.7183,0.7198,0.7198,0.6966,0,0,0,0,0,0.705,0.7083,0.7066,0.7133,0.7137,0.7112,0.7128,0.7103,0.7108,0.7111,0.7104,0.7112,0.7141,0.7162,0.7187,0.7272,0.7271,0.7313,0.7329,0.7341,0.7352,0.7398,0.7417,0.7212,0.7212,0.7212,0,0,0.711,0.7104,0.7127,0.7151,0.7153,0.7189,0.7115,0.7156,0.7183,0.7117,0.7175,0.717,0.7176,0.725,0.7282,0.725,0.7408,0.7352,0.7362,0.7366,0.7409,0.7428,0.7446,0.7218,0.7217,0.7216,0,0,0.7236,0.7234,0.729,0.7294,0.7298,0.728,0.7294,0.7287,0.7281,0.7338,0.729,0.7322,0.7373,0.738,0.739,0.752,0.7483,0.7529,0.761,0.7655,0.7672,0.7686,0.7735,0.7752,0.7539,0.754,0.754,0,0.731,0.7362,0.7324,0.7369,0.7381,0.7322,0.738,0.7385,0.7398,0.7409,0.7372,0.7436,0.7436,0.7511,0.7543,0.7552,0.7568,0.7531,0.7672,0.7686,0.7699,0.7745,0.7763,0.7545,0.7545,0.7544,0.7544,0,0.7453,0.749,0.7535,0.7548,0.7565,0.7616,0.7588,0.761,0.7583,0.757,0.7629,0.7627,0.7652,0.7667,0.7642,0.774,0.772,0.7679,0.7615,0.7725,0.7768,0.7785,0.7554,0.7552,0.755,0.7548,0,0,0.7639,0.7629,0.7647,0.7653,0.7653,0.7681,0.773,0.7753,0.7775,0.7785,0.7827,0.7871,0.7833,0.7844,0.7819,0.7859,0.7965,0.7812,0.7812,0.7843,0.8075,0.8109,0.813,0.7939,0.7942,0.7945,0.8076,0,0.7764,0.7846,0.7814,0.7899,0.7934,0.7878,0.7921,0.7927,0.7916,0.7944,0.7932,0.7965,0.7911,0.7918,0.7954,0.7944,0.8011,0.7934,0.798,0.7982,0.7983,0.8151,0.8187,0.831,0.8092,0.8095,0.8097,0,0.7921,0.7938,0.8027,0.8022,0.8035,0.8074,0.8094,0.8121,0.8127,0.8116,0.8129,0.8096,0.8145,0.8079,0.8148,0.8096,0.8113,0.8111,0.8114,0.812,0.8048,0.8164,0.8348,0.8368,0.8122,0.812,0.8118,0,0.8051,0.8095,0.8155,0.8161,0.8156,0.8185,0.8184,0.8186,0.8203,0.822,0.8231,0.8254,0.8268,0.8287,0.8261,0.8216,0.8335,0.8267,0.8329,0.833,0.8359,0.8358,0.8552,0.8365,0.8365,0.8365,0.8364,0,0.8196,0.8254,0.8213,0.825,0.8313,0.8275,0.8339,0.8332,0.8335,0.837,0.8323,0.8358,0.832,0.8352,0.8332,0.8393,0.8399,0.8393,0.8388,0.8399,0.84,0.8411,0.8403,0.837,0.8369,0.8368,0.8367,0,0.8353,0.8327,0.8389,0.8378,0.8377,0.8425,0.8416,0.8451,0.8436,0.8482,0.8491,0.8468,0.8503,0.8478,0.8513,0.85,0.8581,0.8562,0.8579,0.8575,0.864,0.8636,0.885,0.8878,0.8671,0.8673,0.8675,0,0.8448,0.8491,0.8485,0.8505,0.8507,0.854,0.8557,0.8521,0.8541,0.8551,0.8585,0.8616,0.8639,0.8697,0.8685,0.8712,0.8695,0.8768,0.8699,0.871,0.87,0.8699,0.8704,0.8784,0.8786,0.8788,0.879,0,0.8622,0.8607,0.8632,0.8654,0.8675,0.869,0.8702,0.8722,0.8686,0.871,0.8745,0.8763,0.8799,0.8831,0.8853,0.8853,0.8817,0.8811,0.8827,0.8841,0.885,0.8849,0.8621,0.8807,0.8805,0.8804,0.8803,0.8802,0.8752,0.8788,0.879,0.882,0.8825,0.8837,0.887,0.8859,0.8887,0.8912,0.889,0.8932,0.8938,0.8964,0.8969,0.9003,0.8973,0.8996,0.9003,0.901,0.902,0.8843,0.9006,0.9006,0.9005,0.9005,0.9004,0,0.8925,0.8924,0.8951,0.8969,0.8994,0.8954,0.8966,0.8989,0.9027,0.9034,0.9058,0.9099,0.913,0.9119,0.9147,0.9177,0.9161,0.9185,0.9184,0.9186,0.9044,0.9028,0.9198,0.9198,0.9198,0.9198,0.9198,0.9198,0.9019,0.9078,0.9064,0.9126,0.9124,0.9165,0.9175,0.9187,0.9192,0.924,0.9265,0.9258,0.9259,0.9286,0.9314,0.931,0.9324,0.9355,0.9346,0.9214,0.9195,0.9177,0.9162,0.9358,0.9358,0.9486,0.9487,0.9488]},{"header":{"parameterUnit":"m.s-1","parameterCategory":1,"la1":30.2991,"la2":30.254,"lo1":-89.0895,"lo2":-89.0444,"dy":0.0017,"dx":0.0017,"nx":28,"ny":28,"refTime":"2024-04-03T21:00:00:Z","depth":0,"parameterNumber":3,"parameterNumberName":"V-component_of_WINDS"},"data":[0,0,0,0,0,0,0,0,0,0,0,0,0,0,0,0,0,0,0,0,0,0,0,0,0,0,0,0,0,0,0,0,0,0,0,0,0,0,0,0,0,0,0,0,0,0,0,0,0,0,0,0,0,0,0,0,0,0,-2.1372,-2.1372,0,-2.1407,-2.1408,-2.1408,-2.1409,-2.1408,-2.1408,-2.1408,-2.1441,-2.1442,-2.1444,0,0,0,0,0,0,0,0,0,0,0,0,0,-2.1303,-2.1305,-2.1372,-2.1372,-2.1373,-2.1407,-2.1408,-2.1408,-2.1409,-2.1408,-2.1408,-2.1407,-2.1441,-2.1442,-2.1444,0,0,0,0,0,0,0,0,0,0,0,0,0,-2.1335,-2.1305,-2.1372,-2.1377,-2.1378,-2.1407,-2.1408,-2.1408,-2.1409,-2.1408,-2.1408,-2.1407,-2.144,-2.1442,-2.1444,-2.1469,0,0,-2.145,-2.1451,0,0,0,0,0,0,0,0,-2.1334,-2.1338,-2.1376,-2.1377,-2.1378,-2.1403,-2.1396,-2.1429,-2.1409,-2.1397,-2.1408,-2.1407,-2.1429,-2.1432,-2.144,-2.1471,-2.1472,-2.145,-2.1451,-2.1452,-2.1453,0,0,0,0,0,0,0,-2.1331,-2.1336,-2.1386,-2.1377,-2.1378,-2.1378,-2.1381,-2.1402,-2.1416,-2.1398,-2.1398,-2.1403,-2.1429,-2.1438,-2.144,-2.1472,-2.145,-2.1452,-2.1453,-2.1454,-2.1528,-2.1529,0,0,0,0,0,0,-2.1328,-2.1334,-2.1385,-2.1387,-2.1354,-2.1379,-2.1384,-2.1396,-2.1416,-2.1418,-2.1403,-2.1403,-2.1435,-2.1438,-2.1442,-2.1474,-2.1452,-2.1454,-2.1455,-2.1527,-2.1528,-2.1529,0,0,0,0,0,0,-2.1327,-2.1333,-2.1383,-2.1361,-2.1367,-2.1381,-2.1395,-2.1397,-2.1405,-2.142,-2.1422,-2.141,-2.1434,-2.1439,-2.1463,-2.1475,-2.1455,-2.1457,-2.1526,-2.1528,-2.1529,-2.1538,0,0,0,0,0,0,-2.1325,-2.1332,-2.1342,-2.1361,-2.1368,-2.1404,-2.1395,-2.1398,-2.1409,-2.1409,-2.1426,-2.1429,-2.1434,-2.146,-2.1465,-2.1477,-2.1458,-2.1525,-2.1527,-2.1528,-2.1537,-2.1539,-2.1542,0,0,0,0,0,-2.1322,-2.1342,-2.1342,-2.1349,-2.1381,-2.1405,-2.1409,-2.1416,-2.141,-2.142,-2.143,-2.1428,-2.1473,-2.1463,-2.1468,-2.1481,-2.1525,-2.1526,-2.1528,-2.1535,-2.1539,-2.1542,0,0,0,0,0,0,-2.1322,-2.1344,-2.1345,-2.1372,-2.1387,-2.1405,-2.1418,-2.1419,-2.1435,-2.1434,-2.1441,-2.1445,-2.1469,-2.1477,-2.1466,-2.1508,-2.1498,-2.1501,-2.1502,-2.1505,-2.1507,-2.1505,-2.146,0,0,0,0,0,-2.1326,-2.1344,-2.1362,-2.1384,-2.1391,-2.1403,-2.1414,-2.1418,-2.1434,-2.144,-2.1451,-2.1465,-2.1483,-2.1494,-2.1511,-2.1538,-2.1542,-2.155,-2.1552,-2.1554,-2.1557,-2.1574,-2.1578,-2.1535,-2.1535,-2.1535,0,0,-2.1332,-2.1347,-2.1357,-2.1384,-2.1396,-2.1415,-2.1409,-2.1428,-2.1442,-2.1442,-2.1467,-2.1475,-2.1492,-2.1518,-2.153,-2.1526,-2.157,-2.1556,-2.1558,-2.156,-2.1576,-2.158,-2.1583,-2.1536,-2.1536,-2.1536,0,0,-2.1354,-2.1366,-2.1387,-2.14,-2.1419,-2.1427,-2.1432,-2.1451,-2.1458,-2.1482,-2.1483,-2.15,-2.1529,-2.1542,-2.1552,-2.1581,-2.1581,-2.1586,-2.16,-2.1616,-2.1619,-2.1622,-2.1634,-2.1638,-2.1589,-2.1589,-2.1589,0,-2.136,-2.1389,-2.1397,-2.1418,-2.143,-2.1432,-2.1454,-2.1465,-2.1488,-2.1497,-2.1491,-2.1531,-2.1541,-2.1572,-2.1579,-2.1587,-2.1593,-2.1585,-2.1618,-2.1621,-2.1624,-2.1636,-2.164,-2.159,-2.1589,-2.1589,-2.1589,0,-2.1395,-2.1416,-2.143,-2.1454,-2.1468,-2.1488,-2.15,-2.1513,-2.1516,-2.1525,-2.1551,-2.1565,-2.1586,-2.1593,-2.1595,-2.1624,-2.1621,-2.1617,-2.1607,-2.1629,-2.164,-2.1644,-2.1591,-2.159,-2.159,-2.159,0,0,-2.1417,-2.1448,-2.1453,-2.1465,-2.1488,-2.1503,-2.1524,-2.1546,-2.1558,-2.1574,-2.1592,-2.1618,-2.1616,-2.1627,-2.1631,-2.1646,-2.167,-2.164,-2.1641,-2.1647,-2.1704,-2.1708,-2.1713,-2.167,-2.1671,-2.1671,-2.1704,0,-2.1443,-2.1482,-2.1491,-2.1524,-2.1544,-2.1548,-2.1566,-2.1582,-2.1591,-2.1609,-2.1619,-2.1638,-2.1632,-2.1639,-2.1654,-2.1664,-2.1682,-2.1662,-2.1688,-2.1689,-2.1685,-2.1719,-2.1722,-2.1752,-2.1708,-2.1708,-2.1709,0,-2.1478,-2.1497,-2.1533,-2.1555,-2.1564,-2.158,-2.1602,-2.1619,-2.1637,-2.1643,-2.1657,-2.1661,-2.1683,-2.1672,-2.1704,-2.169,-2.1701,-2.1708,-2.1709,-2.1713,-2.1701,-2.1724,-2.1761,-2.1766,-2.1715,-2.1715,-2.1714,0,-2.1492,-2.1527,-2.1554,-2.1564,-2.1589,-2.1601,-2.1613,-2.163,-2.1644,-2.1662,-2.1671,-2.1691,-2.1703,-2.1719,-2.1728,-2.1719,-2.1759,-2.1749,-2.1765,-2.1765,-2.1774,-2.1774,-2.1815,-2.1779,-2.1779,-2.1779,-2.1779,0,-2.152,-2.1543,-2.1561,-2.1577,-2.1603,-2.1613,-2.1638,-2.1649,-2.1665,-2.1684,-2.1687,-2.1704,-2.1715,-2.1734,-2.1741,-2.1767,-2.1772,-2.1777,-2.1779,-2.1778,-2.1777,-2.1786,-2.1784,-2.178,-2.178,-2.178,-2.178,0,-2.1541,-2.1554,-2.1584,-2.1607,-2.1613,-2.1631,-2.165,-2.1667,-2.1677,-2.17,-2.1706,-2.1722,-2.1745,-2.1755,-2.1782,-2.1787,-2.1818,-2.1817,-2.1812,-2.1813,-2.183,-2.1829,-2.1879,-2.1886,-2.1844,-2.1845,-2.1845,0,-2.1559,-2.1576,-2.1602,-2.1616,-2.1628,-2.1649,-2.1663,-2.1674,-2.1689,-2.1712,-2.1726,-2.1749,-2.1769,-2.1805,-2.1818,-2.184,-2.1841,-2.1857,-2.1844,-2.1843,-2.1843,-2.1842,-2.1845,-2.1859,-2.186,-2.186,-2.186,0,-2.1589,-2.1596,-2.1616,-2.1641,-2.1658,-2.1677,-2.1695,-2.1706,-2.172,-2.1736,-2.1761,-2.1776,-2.1805,-2.1829,-2.1852,-2.1863,-2.1864,-2.1864,-2.187,-2.1869,-2.1866,-2.187,-2.182,-2.1863,-2.1863,-2.1863,-2.1863,-2.1862,-2.161,-2.1627,-2.1648,-2.1672,-2.1688,-2.1706,-2.1723,-2.1736,-2.1757,-2.1783,-2.1788,-2.1814,-2.1833,-2.1864,-2.1876,-2.1897,-2.1893,-2.19,-2.1902,-2.1904,-2.1906,-2.1862,-2.1901,-2.1901,-2.1901,-2.1901,-2.1901,0,-2.1642,-2.1657,-2.1679,-2.1706,-2.1725,-2.1726,-2.1747,-2.1763,-2.1786,-2.1805,-2.1825,-2.1853,-2.1877,-2.1893,-2.1916,-2.193,-2.1931,-2.1936,-2.1935,-2.1938,-2.1907,-2.1901,-2.1934,-2.1934,-2.1934,-2.1934,-2.1934,-2.1934,-2.1661,-2.169,-2.17,-2.1737,-2.1751,-2.1778,-2.179,-2.1807,-2.1822,-2.1855,-2.1875,-2.1886,-2.1904,-2.1929,-2.1951,-2.1955,-2.1964,-2.1969,-2.1973,-2.1944,-2.194,-2.1937,-2.1931,-2.197,-2.197,-2.2002,-2.2003,-2.2003]}]]